timestamp,surface_pressure_avg,surface_temp_avg,battery_voltage,lat,long
2023-05-07 00:09:00+00:00,370.3845,2.7,12.97,47.84626,-54.09684
2023-05-07 00:19:00+00:00,372.7894,2.7,12.81,47.84626,-54.09684
2023-05-07 00:29:00+00:00,370.9929,2.7,12.81,47.84626,-54.09684
2023-05-07 00:39:00+00:00,371.0247,2.7,12.81,47.84626,-54.09684
2023-05-07 00:49:00+00:00,371.93300000000005,2.69,12.81,47.84626,-54.09684
2023-05-07 00:59:00+00:00,369.6113,2.67,12.81,47.84626,-54.09684
2023-05-07 01:09:00+00:00,364.5862,2.66,12.81,47.84626,-54.09684
2023-05-07 01:19:00+00:00,360.6879,2.66,12.73,47.84626,-54.09684
2023-05-07 01:29:00+00:00,356.8495,2.63,12.73,47.84626,-54.09684
2023-05-07 01:39:00+00:00,350.8946,2.61,12.73,47.84626,-54.09684
2023-05-07 01:49:00+00:00,347.1696,2.6,12.73,47.84626,-54.09684
2023-05-07 01:59:00+00:00,345.8464,2.6,12.73,47.84626,-54.09684
2023-05-07 02:09:00+00:00,341.4696,2.6,12.73,47.84626,-54.09684
2023-05-07 02:19:00+00:00,333.7512,2.6,12.73,47.84626,-54.09684
2023-05-07 02:29:00+00:00,329.4363,2.6,12.73,47.84626,-54.09684
2023-05-07 02:39:00+00:00,326.9947,2.6,12.73,47.84626,-54.09684
2023-05-07 02:49:00+00:00,320.0046,2.6,12.73,47.84626,-54.09684
2023-05-07 02:59:00+00:00,308.1731,2.6,12.73,47.84626,-54.09684
2023-05-07 03:09:00+00:00,300.738,2.6,12.73,47.84626,-54.09684
2023-05-07 03:19:00+00:00,296.7464,2.6,12.65,47.84626,-54.09684
2023-05-07 03:29:00+00:00,286.3297,2.6,12.65,47.84626,-54.09684
2023-05-07 03:39:00+00:00,273.553,2.6,12.65,47.84626,-54.09684
2023-05-07 03:49:00+00:00,265.0681,2.6,12.65,47.84626,-54.09684
2023-05-07 03:59:00+00:00,259.4581,2.6,12.65,47.84626,-54.09684
2023-05-07 04:09:00+00:00,248.0781,2.6,12.65,47.84626,-54.09684
2023-05-07 04:19:00+00:00,235.1514,2.6,12.65,47.84626,-54.09684
2023-05-07 04:29:00+00:00,225.8498,2.6,12.65,47.84626,-54.09684
2023-05-07 04:39:00+00:00,218.1664,2.6,12.65,47.84626,-54.09684
2023-05-07 04:49:00+00:00,209.5531,2.6,12.65,47.84626,-54.09684
2023-05-07 04:59:00+00:00,202.5981,2.6,12.65,47.84626,-54.09684
2023-05-07 05:09:00+00:00,196.9931,2.6,12.65,47.84626,-54.09684
2023-05-07 05:19:01+00:00,190.0764,2.6,12.65,47.84626,-54.09684
2023-05-07 05:29:01+00:00,183.4531,2.6,12.65,47.84626,-54.09684
2023-05-07 05:39:01+00:00,179.3248,2.6,12.65,47.84626,-54.09684
2023-05-07 05:49:01+00:00,176.4448,2.6,12.65,47.84626,-54.09684
2023-05-07 05:59:01+00:00,173.7731,2.5,12.65,47.84626,-54.09684
2023-05-07 06:09:01+00:00,173.8798,2.5,12.65,47.84626,-54.09684
2023-05-07 06:19:00+00:00,173.5048,2.4,12.57,47.84626,-54.09684
2023-05-07 06:29:00+00:00,173.0947,2.4,12.57,47.84626,-54.09684
2023-05-07 06:39:00+00:00,177.2565,2.3,12.57,47.84626,-54.09684
2023-05-07 06:49:00+00:00,180.2015,2.3,12.57,47.84626,-54.09684
2023-05-07 06:59:00+00:00,180.2097,2.3,12.57,47.84626,-54.09684
2023-05-07 07:09:00+00:00,182.4965,2.28,12.57,47.84626,-54.09684
2023-05-07 07:19:00+00:00,185.0082,2.26,12.57,47.84626,-54.09684
2023-05-07 07:29:00+00:00,188.4481,2.24,12.57,47.84626,-54.09684
2023-05-07 07:39:00+00:00,192.9714,2.22,12.57,47.84626,-54.09684
2023-05-07 07:49:00+00:00,195.9981,2.23,12.57,47.84626,-54.09684
2023-05-07 07:59:00+00:00,199.7664,2.22,12.57,47.84626,-54.09684
2023-05-07 08:09:00+00:00,205.5831,2.21,12.57,47.84626,-54.09684
2023-05-07 08:19:00+00:00,211.7964,2.2,12.57,47.84626,-54.09684
2023-05-07 08:29:00+00:00,215.6615,2.2,12.57,47.84626,-54.09684
2023-05-07 08:39:00+00:00,218.9681,2.2,12.57,47.84626,-54.09684
2023-05-07 08:49:00+00:00,222.0948,2.2,12.57,47.84626,-54.09684
2023-05-07 08:59:00+00:00,225.9048,2.26,12.57,47.84626,-54.09684
2023-05-07 09:09:00+00:00,230.8714,2.3,12.57,47.84626,-54.09684
2023-05-07 09:19:00+00:00,234.7631,2.3,12.65,47.84626,-54.09684
2023-05-07 09:29:00+00:00,235.9482,2.3,12.65,47.84626,-54.09684
2023-05-07 09:39:00+00:00,240.5264,2.3,12.65,47.84626,-54.09684
2023-05-07 09:49:00+00:00,247.1581,2.35,12.65,47.84626,-54.09684
2023-05-07 09:59:00+00:00,252.5214,2.35,12.65,47.84626,-54.09684
2023-05-07 10:09:00+00:00,256.9147,2.34,12.65,47.84626,-54.09684
2023-05-07 10:19:00+00:00,265.3064,2.3,12.81,47.84626,-54.09684
2023-05-07 10:29:00+00:00,275.1697,2.3,12.81,47.84626,-54.09684
2023-05-07 10:39:00+00:00,281.5114,2.1,12.81,47.84626,-54.09684
2023-05-07 10:49:00+00:00,286.1964,2.1,12.81,47.84626,-54.09684
2023-05-07 10:59:00+00:00,295.8898,2.0,12.81,47.84626,-54.09684
2023-05-07 11:09:00+00:00,304.6397,2.0,12.81,47.84626,-54.09684
2023-05-07 11:19:00+00:00,310.2047,2.0,14.0,47.84626,-54.09684
2023-05-07 11:29:00+00:00,315.853,2.0,14.0,47.84626,-54.09684
2023-05-07 11:39:00+00:00,323.8813,2.0,14.0,47.84626,-54.09684
2023-05-07 11:49:00+00:00,331.173,2.0,14.0,47.84626,-54.09684
2023-05-07 11:59:00+00:00,335.3479,1.96,14.0,47.84626,-54.09684
2023-05-07 12:09:00+00:00,337.5911,1.9,14.0,47.84626,-54.09684
2023-05-07 12:19:00+00:00,340.543,1.82,14.08,47.84626,-54.09684
2023-05-07 12:29:00+00:00,344.3047,1.8,14.08,47.84626,-54.09684
2023-05-07 12:39:00+00:00,345.8562,1.71,14.08,47.84626,-54.09684
2023-05-07 12:49:00+00:00,343.7447,1.7,14.08,47.84626,-54.09684
2023-05-07 12:59:00+00:00,342.2712,1.7,14.08,47.84626,-54.09684
2023-05-07 13:09:00+00:00,344.7595,1.7,14.08,47.84626,-54.09684
2023-05-07 13:19:00+00:00,344.4946,1.7,14.32,47.84626,-54.09684
2023-05-07 13:29:00+00:00,339.8363,1.7,14.32,47.84626,-54.09684
2023-05-07 13:39:00+00:00,339.2714,1.7,14.32,47.84626,-54.09684
2023-05-07 13:49:00+00:00,342.3079,1.68,14.32,47.84626,-54.09684
2023-05-07 13:59:00+00:00,338.6613,1.6,14.32,47.84626,-54.09684
2023-05-07 14:09:00+00:00,330.7829,1.6,14.32,47.84626,-54.09684
2023-05-07 14:19:00+00:00,330.0929,1.57,14.32,47.84626,-54.09684
2023-05-07 14:29:00+00:00,329.6796,1.53,14.32,47.84626,-54.09684
2023-05-07 14:39:00+00:00,320.373,1.5,14.32,47.84626,-54.09684
2023-05-07 14:49:00+00:00,311.363,1.53,14.32,47.84626,-54.09684
2023-05-07 14:59:00+00:00,310.4948,1.5,14.32,47.84626,-54.09684
2023-05-07 15:09:00+00:00,307.5913,1.5,14.32,47.84626,-54.09684
2023-05-07 15:19:00+00:00,294.4496,1.5,14.08,47.84626,-54.09684
2023-05-07 15:29:00+00:00,284.173,1.56,14.08,47.84626,-54.09684
2023-05-07 15:39:00+00:00,281.3831,1.59,14.08,47.84626,-54.09684
2023-05-07 15:49:00+00:00,275.1964,1.57,14.08,47.84626,-54.09684
2023-05-07 15:59:00+00:00,261.6998,1.63,14.08,47.84626,-54.09684
2023-05-07 16:09:00+00:00,251.5048,1.7,14.08,47.84626,-54.09684
2023-05-07 16:19:00+00:00,244.4181,1.7,14.08,47.84626,-54.09684
2023-05-07 16:29:00+00:00,234.6281,1.7,14.08,47.84626,-54.09684
2023-05-07 16:39:00+00:00,224.6497,1.7,14.08,47.84626,-54.09684
2023-05-07 16:49:00+00:00,217.6281,1.7,14.08,47.84626,-54.09684
2023-05-07 16:59:00+00:00,209.2865,1.6,14.08,47.84626,-54.09684
2023-05-07 17:09:00+00:00,200.2931,1.6,14.08,47.84626,-54.09684
2023-05-07 17:19:00+00:00,194.3898,1.55,13.92,47.84626,-54.09684
2023-05-07 17:29:00+00:00,190.9764,1.5,13.92,47.84626,-54.09684
2023-05-07 17:39:00+00:00,186.1998,1.49,13.92,47.84626,-54.09684
2023-05-07 17:49:00+00:00,180.9815,1.4,13.92,47.84626,-54.09684
2023-05-07 17:59:00+00:00,178.1015,1.35,13.92,47.84626,-54.09684
2023-05-07 18:09:00+00:00,179.4698,1.3,13.92,47.84626,-54.09684
2023-05-07 18:19:00+00:00,180.5115,1.3,13.84,47.84626,-54.09684
2023-05-07 18:29:00+00:00,179.8765,1.3,13.84,47.84626,-54.09684
2023-05-07 18:39:00+00:00,179.3631,1.3,13.84,47.84626,-54.09684
2023-05-07 18:49:00+00:00,181.5532,1.3,13.84,47.84626,-54.09684
2023-05-07 18:59:00+00:00,183.6565,1.3,13.84,47.84626,-54.09684
2023-05-07 19:09:00+00:00,184.7899,1.3,13.84,47.84626,-54.09684
2023-05-07 19:19:00+00:00,187.8898,1.3,13.76,47.84626,-54.09684
2023-05-07 19:29:00+00:00,193.1782,1.3,13.76,47.84626,-54.09684
2023-05-07 19:39:00+00:00,198.2531,1.33,13.76,47.84626,-54.09684
2023-05-07 19:49:00+00:00,200.7515,1.39,13.76,47.84626,-54.09684
2023-05-07 19:59:00+00:00,205.0265,1.4,13.76,47.84626,-54.09684
2023-05-07 20:09:00+00:00,213.9948,1.44,13.76,47.84626,-54.09684
2023-05-07 20:19:00+00:00,219.7381,1.49,13.6,47.84626,-54.09684
2023-05-07 20:29:00+00:00,219.7014,1.5,13.6,47.84626,-54.09684
2023-05-07 20:39:00+00:00,225.1965,1.58,13.6,47.84626,-54.09684
2023-05-07 20:49:00+00:00,235.6131,1.6,13.6,47.84626,-54.09684
2023-05-07 20:59:00+00:00,238.6048,1.6,13.6,47.84626,-54.09684
2023-05-07 21:09:00+00:00,239.3165,1.6,13.6,47.84626,-54.09684
2023-05-07 21:19:00+00:00,245.7514,1.65,13.44,47.84626,-54.09684
2023-05-07 21:29:00+00:00,255.4981,1.69,13.44,47.84626,-54.09684
2023-05-07 21:39:00+00:00,261.513,1.71,13.44,47.84626,-54.09684
2023-05-07 21:49:00+00:00,265.0464,1.8,13.44,47.84626,-54.09684
2023-05-07 21:59:00+00:00,272.6847,1.9,13.44,47.84626,-54.09684
2023-05-07 22:09:00+00:00,283.0114,1.9,13.44,47.84626,-54.09684
2023-05-07 22:19:00+00:00,288.5231,1.98,13.13,47.84626,-54.09684
2023-05-07 22:29:00+00:00,292.1614,2.0,13.13,47.84626,-54.09684
2023-05-07 22:39:00+00:00,302.033,2.0,13.13,47.84626,-54.09684
2023-05-07 22:49:00+00:00,314.33799999999997,2.0,13.13,47.84626,-54.09684
2023-05-07 22:59:00+00:00,321.2364,2.07,13.13,47.84626,-54.09684
2023-05-07 23:09:00+00:00,328.168,2.1,13.13,47.84626,-54.09684
2023-05-07 23:19:00+00:00,338.2363,2.1,12.89,47.84626,-54.09684
2023-05-07 23:29:00+00:00,345.3746,2.1,12.89,47.84626,-54.09684
2023-05-07 23:39:00+00:00,351.7563,2.1,12.89,47.84626,-54.09684
2023-05-07 23:49:00+00:00,360.7296,2.1,12.89,47.84626,-54.09684
2023-05-07 23:59:00+00:00,367.4396,2.12,12.89,47.84626,-54.09684
